Radiation Dose at Monitoring Post of Fukushima Daini Nuclear Power Station
Date,Time,MP-1(microSv/h),MP-2(microSv/h),MP-3(microSv/h),MP-4(microSv/h),MP-5(microSv/h),MP-6(microSv/h),MP-7(microSv/h),Wind Direction,Wind Velocity(m/s),Rain
2021/12/16,00:00,0.160,0.144,0.227,0.223,0.226,0.123,0.079,west-northwest,6.1,No
2021/12/16,00:10,0.159,0.145,0.228,0.223,0.227,0.123,0.079,west-northwest,4.9,No
2021/12/16,00:20,0.159,0.145,0.226,0.221,0.226,0.124,0.079,west-northwest,4.3,No
2021/12/16,00:30,0.159,0.144,0.227,0.222,0.225,0.124,0.079,northwest,4.1,No
2021/12/16,00:40,0.159,0.145,0.227,0.223,0.226,0.124,0.079,northwest,1.4,No
2021/12/16,00:50,0.160,0.144,0.227,0.222,0.226,0.123,0.079,-,CALM,No
2021/12/16,01:00,0.159,0.145,0.227,0.222,0.226,0.124,0.079,west-northwest,0.6,No
2021/12/16,01:10,0.160,0.144,0.226,0.223,0.226,0.123,0.078,-,CALM,No
2021/12/16,01:20,0.159,0.145,0.228,0.222,0.226,0.124,0.079,northwest,0.8,No
2021/12/16,01:30,0.159,0.144,0.227,0.222,0.226,0.123,0.079,north-northwest,1.3,No
2021/12/16,01:40,0.160,0.145,0.227,0.222,0.227,0.124,0.079,north,1.5,No
2021/12/16,01:50,0.158,0.144,0.227,0.223,0.227,0.123,0.079,north-northwest,2.5,No
2021/12/16,02:00,0.159,0.144,0.228,0.220,0.227,0.124,0.079,north-northwest,2.3,No
2021/12/16,02:10,0.159,0.144,0.227,0.224,0.227,0.124,0.079,northwest,1.9,No
2021/12/16,02:20,0.160,0.146,0.227,0.223,0.227,0.124,0.080,west-northwest,1.3,No
2021/12/16,02:30,0.159,0.145,0.227,0.223,0.228,0.124,0.079,west,0.9,No
2021/12/16,02:40,0.159,0.144,0.228,0.222,0.226,0.124,0.079,southeast,2.3,No
2021/12/16,02:50,0.159,0.145,0.227,0.223,0.225,0.124,0.080,south,2.3,No
2021/12/16,03:00,0.159,0.145,0.227,0.223,0.227,0.124,0.079,south-southwest,3.9,No
2021/12/16,03:10,0.159,0.145,0.227,0.222,0.226,0.123,0.079,south-southwest,2.9,No
2021/12/16,03:20,0.158,0.144,0.227,0.224,0.226,0.123,0.079,south,3.1,No
2021/12/16,03:30,0.160,0.145,0.227,0.223,0.226,0.124,0.078,south,2.7,No
2021/12/16,03:40,0.160,0.144,0.228,0.222,0.226,0.124,0.079,south-southeast,3.3,No
2021/12/16,03:50,0.160,0.146,0.227,0.223,0.226,0.124,0.079,south-southeast,3.4,No
2021/12/16,04:00,0.160,0.145,0.227,0.223,0.226,0.124,0.080,south-southeast,3.1,No
2021/12/16,04:10,0.159,0.144,0.226,0.223,0.226,0.123,0.079,south,2.7,Yes
2021/12/16,04:20,0.159,0.144,0.227,0.222,0.227,0.123,0.079,south,1.9,No
2021/12/16,04:30,0.158,0.145,0.226,0.221,0.226,0.124,0.079,southwest,1.9,No
2021/12/16,04:40,0.159,0.145,0.227,0.223,0.226,0.124,0.078,south,1.2,No
2021/12/16,04:50,0.159,0.144,0.227,0.222,0.227,0.124,0.079,south-southeast,1.8,No
2021/12/16,05:00,0.159,0.145,0.227,0.223,0.227,0.123,0.079,southwest,1.5,No
2021/12/16,05:10,0.159,0.145,0.227,0.221,0.226,0.125,0.079,-,CALM,No
2021/12/16,05:20,0.158,0.144,0.227,0.224,0.227,0.125,0.079,southeast,1.4,No
2021/12/16,05:30,0.159,0.145,0.226,0.222,0.226,0.124,0.079,south-southwest,0.8,No
2021/12/16,05:40,0.159,0.144,0.227,0.222,0.227,0.124,0.079,east-southeast,1.1,No
2021/12/16,05:50,0.160,0.145,0.226,0.223,0.226,0.124,0.079,east-southeast,1.4,No
2021/12/16,06:00,0.159,0.144,0.228,0.222,0.226,0.125,0.079,southeast,0.8,No
2021/12/16,06:10,0.160,0.145,0.228,0.222,0.227,0.124,0.080,-,CALM,No
2021/12/16,06:20,0.160,0.145,0.228,0.222,0.227,0.124,0.079,east-southeast,0.7,No
2021/12/16,06:30,0.159,0.145,0.226,0.223,0.225,0.125,0.080,southeast,1.4,No
2021/12/16,06:40,0.160,0.146,0.227,0.222,0.227,0.124,0.080,south-southwest,1.7,No
2021/12/16,06:50,0.160,0.145,0.227,0.222,0.227,0.124,0.080,south,2.9,No
2021/12/16,07:00,0.160,0.144,0.228,0.222,0.226,0.124,0.079,south,2.7,No
2021/12/16,07:10,0.160,0.145,0.227,0.222,0.227,0.124,0.079,south-southeast,2.4,No
2021/12/16,07:20,0.160,0.144,0.227,0.223,0.226,0.123,0.080,south,3.2,No
2021/12/16,07:30,0.159,0.145,0.227,0.222,0.227,0.124,0.079,south-southeast,2.8,No
2021/12/16,07:40,0.158,0.145,0.227,0.222,0.226,0.124,0.080,south-southeast,2.3,No
2021/12/16,07:50,0.159,0.144,0.227,0.223,0.226,0.124,0.080,south,3.1,No
2021/12/16,08:00,0.159,0.146,0.227,0.221,0.227,0.124,0.080,south,3.3,No
2021/12/16,08:10,0.160,0.144,0.227,0.222,0.227,0.124,0.080,south-southeast,4.9,No
2021/12/16,08:20,0.159,0.144,0.228,0.222,0.226,0.124,0.079,south,5.5,No
2021/12/16,08:30,0.159,0.145,0.227,0.222,0.226,0.125,0.080,south,6.1,No
2021/12/16,08:40,0.158,0.146,0.226,0.223,0.228,0.124,0.080,south,6.7,No
2021/12/16,08:50,0.159,0.145,0.228,0.222,0.226,0.124,0.080,south,5.5,No
2021/12/16,09:00,0.159,0.146,0.227,0.223,0.225,0.124,0.080,south,5.3,No
2021/12/16,09:10,0.159,0.145,0.226,0.221,0.228,0.123,0.080,south,4.9,No
2021/12/16,09:20,0.159,0.145,0.228,0.222,0.226,0.123,0.079,south,5.1,No
2021/12/16,09:30,0.159,0.145,0.227,0.223,0.227,0.123,0.080,south-southwest,3.8,No
2021/12/16,09:40,0.160,0.144,0.227,0.222,0.226,0.123,0.079,south-southwest,4.4,No
2021/12/16,09:50,0.160,0.144,0.227,0.223,0.226,0.124,0.079,south-southwest,3.7,No
2021/12/16,10:00,0.159,0.144,0.227,0.224,0.226,0.124,0.079,southwest,5.0,No
2021/12/16,10:10,0.159,0.143,0.227,0.223,0.226,0.125,0.079,south-southwest,4.2,No
2021/12/16,10:20,0.159,0.145,0.227,0.223,0.227,0.123,0.079,south-southwest,5.1,No
2021/12/16,10:30,0.159,0.144,0.226,0.222,0.225,0.123,0.079,south,4.1,No
2021/12/16,10:40,0.159,0.144,0.226,0.222,0.226,0.124,0.078,south,5.1,No
2021/12/16,10:50,0.159,0.144,0.226,0.222,0.225,0.125,0.079,south,5.1,No
2021/12/16,11:00,0.159,0.144,0.226,0.221,0.227,0.123,0.079,south,4.7,No
2021/12/16,11:10,0.158,0.145,0.227,0.222,0.226,0.124,0.080,south-southeast,5.4,No
2021/12/16,11:20,0.159,0.144,0.228,0.220,0.225,0.124,0.078,south-southeast,5.8,No
2021/12/16,11:30,0.159,0.145,0.227,0.222,0.227,0.124,0.079,south-southeast,5.1,No
2021/12/16,11:40,0.158,0.144,0.227,0.222,0.225,0.124,0.079,south-southeast,5.8,No
2021/12/16,11:50,0.158,0.145,0.227,0.222,0.227,0.124,0.078,south-southeast,5.7,No
2021/12/16,12:00,0.159,0.144,0.226,0.223,0.226,0.124,0.080,south-southeast,5.3,No
2021/12/16,12:10,0.158,0.145,0.228,0.221,0.227,0.124,0.078,south-southeast,5.0,No
2021/12/16,12:20,0.159,0.144,0.225,0.224,0.225,0.124,0.079,south-southeast,4.2,No
2021/12/16,12:30,0.158,0.144,0.226,0.222,0.227,0.124,0.078,southeast,3.9,No
2021/12/16,12:40,0.159,0.145,0.226,0.222,0.224,0.123,0.079,south-southeast,3.2,No
2021/12/16,12:50,0.158,0.144,0.226,0.221,0.227,0.124,0.079,south-southeast,2.8,No
2021/12/16,13:00,0.157,0.144,0.226,0.222,0.226,0.124,0.078,south-southwest,2.6,No
2021/12/16,13:10,0.158,0.143,0.226,0.220,0.228,0.123,0.079,south,3.2,No
2021/12/16,13:20,0.157,0.145,0.226,0.222,0.225,0.124,0.080,south,5.3,No
2021/12/16,13:30,0.158,0.144,0.227,0.220,0.227,0.124,0.079,south,6.0,No
2021/12/16,13:40,0.158,0.145,0.228,0.222,0.225,0.125,0.079,south,4.9,No
2021/12/16,13:50,0.159,0.143,0.225,0.221,0.226,0.124,0.079,south,4.3,No
2021/12/16,14:00,0.159,0.145,0.228,0.222,0.225,0.124,0.079,south,5.9,No
2021/12/16,14:10,0.158,0.144,0.228,0.221,0.226,0.123,0.079,south,5.9,No
2021/12/16,14:20,0.159,0.145,0.227,0.221,0.225,0.123,0.079,south,5.9,No
2021/12/16,14:30,0.159,0.145,0.226,0.222,0.227,0.123,0.079,south,5.4,No
2021/12/16,14:40,0.158,0.145,0.226,0.223,0.226,0.124,0.079,south,5.9,No
2021/12/16,14:50,0.159,0.146,0.229,0.222,0.228,0.124,0.078,south-southwest,5.2,No
2021/12/16,15:00,0.158,0.145,0.227,0.222,0.225,0.124,0.078,south,5.5,No
2021/12/16,15:10,0.158,0.144,0.226,0.222,0.229,0.123,0.079,south,6.4,No
2021/12/16,15:20,0.158,0.143,0.227,0.221,0.227,0.123,0.079,south-southeast,7.1,No
2021/12/16,15:30,0.161,0.145,0.227,0.223,0.228,0.124,0.079,south,6.8,No
2021/12/16,15:40,0.159,0.144,0.227,0.223,0.226,0.124,0.079,south,6.7,No
2021/12/16,15:50,0.159,0.144,0.227,0.222,0.227,0.123,0.079,south,6.0,No
2021/12/16,16:00,0.158,0.144,0.228,0.222,0.227,0.123,0.079,south,6.2,No
2021/12/16,16:10,0.159,0.145,0.226,0.221,0.227,0.124,0.078,south-southwest,5.1,No
2021/12/16,16:20,0.158,0.144,0.227,0.223,0.229,0.124,0.079,south-southwest,3.8,No
2021/12/16,16:30,0.159,0.145,0.227,0.222,0.225,0.124,0.078,south-southwest,5.2,No
2021/12/16,16:40,0.158,0.145,0.226,0.223,0.227,0.123,0.079,south-southwest,4.6,No
2021/12/16,16:50,0.159,0.145,0.227,0.223,0.226,0.124,0.079,south-southwest,4.4,No
2021/12/16,17:00,0.159,0.145,0.227,0.222,0.226,0.124,0.079,south-southwest,5.2,No
2021/12/16,17:10,0.158,0.144,0.226,0.223,0.227,0.124,0.079,south-southwest,5.4,No
2021/12/16,17:20,0.159,0.146,0.228,0.222,0.225,0.124,0.078,south-southwest,5.2,No
2021/12/16,17:30,0.159,0.144,0.227,0.222,0.227,0.124,0.079,southwest,6.0,No
2021/12/16,17:40,0.159,0.144,0.226,0.224,0.225,0.124,0.079,south-southwest,5.6,No
2021/12/16,17:50,0.160,0.145,0.227,0.222,0.226,0.124,0.079,southwest,4.9,No
2021/12/16,18:00,0.158,0.144,0.226,0.222,0.228,0.124,0.079,west-southwest,4.9,No
2021/12/16,18:10,0.158,0.144,0.228,0.223,0.226,0.125,0.078,southwest,3.0,No
2021/12/16,18:20,0.160,0.145,0.226,0.222,0.228,0.124,0.079,southwest,3.2,No
2021/12/16,18:30,0.159,0.145,0.226,0.223,0.226,0.123,0.080,southwest,5.1,No
2021/12/16,18:40,0.158,0.144,0.226,0.223,0.227,0.123,0.079,west-southwest,4.1,No
2021/12/16,18:50,0.159,0.143,0.227,0.222,0.226,0.123,0.079,west-southwest,4.6,No
2021/12/16,19:00,0.159,0.143,0.225,0.221,0.225,0.124,0.079,west-southwest,4.1,No
2021/12/16,19:10,0.159,0.144,0.227,0.221,0.228,0.124,0.079,west-southwest,4.5,No
2021/12/16,19:20,0.159,0.144,0.227,0.222,0.227,0.124,0.079,west-southwest,5.3,No
2021/12/16,19:30,0.159,0.144,0.228,0.223,0.227,0.124,0.079,west-southwest,5.9,No
2021/12/16,19:40,0.159,0.145,0.227,0.222,0.226,0.124,0.079,west-southwest,6.5,No
2021/12/16,19:50,0.159,0.145,0.227,0.222,0.226,0.124,0.079,southwest,4.9,No
2021/12/16,20:00,0.159,0.145,0.228,0.223,0.228,0.124,0.079,southwest,4.0,No
2021/12/16,20:10,0.159,0.145,0.225,0.223,0.227,0.123,0.079,west-southwest,1.1,No
2021/12/16,20:20,0.159,0.144,0.227,0.223,0.225,0.124,0.079,-,CALM,No
2021/12/16,20:30,0.159,0.145,0.228,0.223,0.227,0.124,0.079,east,2.4,No
2021/12/16,20:40,0.160,0.144,0.226,0.222,0.225,0.123,0.079,southeast,2.3,No
2021/12/16,20:50,0.158,0.145,0.227,0.222,0.226,0.124,0.079,southeast,1.3,No
2021/12/16,21:00,0.158,0.144,0.226,0.224,0.226,0.124,0.079,south-southwest,0.9,No
2021/12/16,21:10,0.160,0.144,0.227,0.222,0.227,0.123,0.079,west-southwest,2.3,No
2021/12/16,21:20,0.159,0.145,0.226,0.222,0.225,0.124,0.079,west,2.8,No
2021/12/16,21:30,0.158,0.145,0.226,0.222,0.226,0.124,0.079,west,3.8,No
2021/12/16,21:40,0.159,0.143,0.227,0.222,0.226,0.124,0.079,west-southwest,2.3,No
2021/12/16,21:50,0.159,0.145,0.226,0.222,0.228,0.123,0.079,southwest,2.3,No
2021/12/16,22:00,0.159,0.144,0.228,0.223,0.227,0.124,0.079,west-southwest,2.0,No
2021/12/16,22:10,0.160,0.145,0.227,0.223,0.227,0.124,0.079,west-southwest,1.7,No
2021/12/16,22:20,0.160,0.145,0.228,0.223,0.226,0.123,0.080,southwest,1.3,No
2021/12/16,22:30,0.159,0.146,0.227,0.223,0.226,0.125,0.079,southwest,2.0,No
2021/12/16,22:40,0.160,0.144,0.227,0.223,0.227,0.125,0.079,west,2.3,No
2021/12/16,22:50,0.159,0.145,0.227,0.222,0.227,0.124,0.078,west,4.6,No
2021/12/16,23:00,0.159,0.145,0.226,0.222,0.225,0.125,0.079,west,6.6,No
2021/12/16,23:10,0.160,0.145,0.226,0.223,0.227,0.124,0.079,west-northwest,4.9,No
2021/12/16,23:20,0.159,0.145,0.228,0.222,0.227,0.123,0.079,northwest,3.1,No
2021/12/16,23:30,0.159,0.144,0.226,0.222,0.226,0.123,0.080,west-northwest,3.9,No
2021/12/16,23:40,0.159,0.145,0.227,0.224,0.226,0.125,0.079,northwest,3.8,No
2021/12/16,23:50,0.159,0.145,0.228,0.223,0.226,0.124,0.080,north-northwest,1.1,No
